Time,TemperatureF,DewpointF,PressureIn,WindDirection,WindDirectionDegrees,WindSpeedMPH,WindSpeedGustMPH,Humidity,HourlyPrecipIn,Conditions,Clouds,dailyrainin,SoftwareType,DateUTC
2013-01-15 00:00:00,57.7,53.2,30.19,SW,235,3.0,4.0,85,0.00,,SKC,0.01,VWS V13.00,2013-01-15 05:00:00,
2013-01-15 00:01:00,57.7,53.2,30.19,SW,235,1.0,4.0,85,0.00,,SKC,0.01,VWS V13.00,2013-01-15 05:01:00,
2013-01-15 00:05:00,57.7,53.2,30.19,WSW,242,2.0,6.0,85,0.00,,SKC,0.00,VWS V13.00,2013-01-15 05:05:00,
2013-01-15 00:06:00,57.7,53.2,30.19,WSW,242,3.0,6.0,85,0.00,,SKC,0.00,VWS V13.00,2013-01-15 05:06:00,
2013-01-15 00:10:00,57.9,53.7,30.18,WSW,242,6.0,6.0,86,0.00,,SKC,0.00,VWS V13.00,2013-01-15 05:10:00,
2013-01-15 00:11:00,57.9,53.7,30.18,SW,234,4.0,6.0,86,0.00,,SKC,0.00,VWS V13.00,2013-01-15 05:11:00,
2013-01-15 00:15:00,58.0,53.8,30.19,SW,224,3.0,7.0,86,0.00,,SKC,0.00,VWS V13.00,2013-01-15 05:15:00,
2013-01-15 00:16:00,58.0,53.8,30.19,SW,224,3.0,7.0,86,0.00,,SKC,0.00,VWS V13.00,2013-01-15 05:16:00,
2013-01-15 00:20:00,58.2,54.0,30.19,WSW,244,6.0,6.0,86,0.00,,SKC,0.00,VWS V13.00,2013-01-15 05:20:00,
2013-01-15 00:21:00,58.1,53.9,30.19,SW,224,5.0,6.0,86,0.00,,SKC,0.00,VWS V13.00,2013-01-15 05:21:00,
2013-01-15 00:25:00,58.3,53.8,30.19,SW,232,5.0,7.0,85,0.00,,SKC,0.00,VWS V13.00,2013-01-15 05:25:00,
2013-01-15 00:26:00,58.3,53.8,30.19,SW,221,5.0,7.0,85,0.00,,SKC,0.00,VWS V13.00,2013-01-15 05:26:00,
2013-01-15 00:30:00,58.4,53.9,30.19,SW,223,5.0,6.0,85,0.00,,SKC,0.00,VWS V13.00,2013-01-15 05:30:00,
2013-01-15 00:31:00,58.4,53.9,30.19,SW,225,5.0,6.0,85,0.00,,SKC,0.00,VWS V13.00,2013-01-15 05:31:00,
2013-01-15 00:35:00,58.4,53.9,30.18,SW,219,6.0,6.0,85,0.00,,SKC,0.00,VWS V13.00,2013-01-15 05:35:00,
2013-01-15 00:36:00,58.4,53.9,30.18,SW,215,3.0,6.0,85,0.00,,SKC,0.00,VWS V13.00,2013-01-15 05:36:00,
2013-01-15 00:40:00,58.4,53.9,30.18,SW,223,3.0,7.0,85,0.00,,SKC,0.00,VWS V13.00,2013-01-15 05:40:00,
2013-01-15 00:41:00,58.4,53.9,30.18,SW,231,2.0,7.0,85,0.00,,SKC,0.00,VWS V13.00,2013-01-15 05:41:00,
2013-01-15 00:45:00,58.4,53.9,30.18,WSW,241,3.0,6.0,85,0.00,,SKC,0.00,VWS V13.00,2013-01-15 05:45:00,
2013-01-15 00:46:00,58.3,53.8,30.18,SW,236,4.0,6.0,85,0.00,,SKC,0.00,VWS V13.00,2013-01-15 05:46:00,
2013-01-15 00:50:00,58.4,53.9,30.18,SW,232,1.0,5.0,85,0.00,,SKC,0.00,VWS V13.00,2013-01-15 05:50:00,
2013-01-15 00:51:00,58.4,53.9,30.18,WSW,248,0.0,5.0,85,0.00,,SKC,0.00,VWS V13.00,2013-01-15 05:51:00,
2013-01-15 00:55:00,58.4,53.9,30.18,WSW,248,3.0,7.0,85,0.00,,SKC,0.00,VWS V13.00,2013-01-15 05:55:00,
2013-01-15 00:56:00,58.4,53.9,30.18,WSW,247,3.0,7.0,85,0.00,,SKC,0.00,VWS V13.00,2013-01-15 05:56:00,
2013-01-15 01:00:00,58.6,54.1,30.18,SW,219,1.0,6.0,85,0.00,,SKC,0.00,VWS V13.00,2013-01-15 06:00:00,
2013-01-15 01:01:00,58.5,54.0,30.18,SW,219,3.0,6.0,85,0.00,,SKC,0.00,VWS V13.00,2013-01-15 06:01:00,
2013-01-15 01:05:00,58.6,54.4,30.18,SW,224,4.0,6.0,86,0.01,,SKC,0.01,VWS V13.00,2013-01-15 06:05:00,
2013-01-15 01:06:00,58.6,54.4,30.18,SW,214,3.0,6.0,86,0.01,,SKC,0.01,VWS V13.00,2013-01-15 06:06:00,
2013-01-15 01:10:00,58.7,54.5,30.18,SW,232,6.0,6.0,86,0.01,,SKC,0.01,VWS V13.00,2013-01-15 06:10:00,
2013-01-15 01:11:00,58.7,54.5,30.18,WSW,250,5.0,5.0,86,0.01,,SKC,0.01,VWS V13.00,2013-01-15 06:11:00,
2013-01-15 01:15:00,58.9,54.7,30.18,WSW,241,5.0,7.0,86,0.01,,SKC,0.01,VWS V13.00,2013-01-15 06:15:00,
2013-01-15 01:16:00,58.9,54.7,30.18,WSW,251,2.0,7.0,86,0.01,,SKC,0.01,VWS V13.00,2013-01-15 06:16:00,
2013-01-15 01:20:00,59.0,54.8,30.18,WSW,251,5.0,7.0,86,0.01,,SKC,0.01,VWS V13.00,2013-01-15 06:20:00,
2013-01-15 01:21:00,59.0,54.8,30.18,WSW,254,3.0,7.0,86,0.01,,SKC,0.01,VWS V13.00,2013-01-15 06:21:00,
2013-01-15 01:25:00,59.1,54.9,30.18,WSW,252,4.0,8.0,86,0.01,,SKC,0.01,VWS V13.00,2013-01-15 06:25:00,
2013-01-15 01:26:00,59.1,54.9,30.18,SSW,213,6.0,8.0,86,0.01,,SKC,0.01,VWS V13.00,2013-01-15 06:26:00,
2013-01-15 01:30:00,59.6,55.4,30.18,SSW,213,2.0,8.0,86,0.01,,SKC,0.01,VWS V13.00,2013-01-15 06:30:00,
2013-01-15 01:31:00,59.5,55.3,30.18,WSW,244,2.0,8.0,86,0.01,,SKC,0.01,VWS V13.00,2013-01-15 06:31:00,
2013-01-15 01:35:00,59.7,55.5,30.18,SW,232,5.0,8.0,86,0.01,,SKC,0.01,VWS V13.00,2013-01-15 06:35:00,
2013-01-15 01:36:00,59.7,55.5,30.18,SW,232,5.0,8.0,86,0.01,,SKC,0.01,VWS V13.00,2013-01-15 06:36:00,
2013-01-15 01:40:00,59.7,55.5,30.18,WSW,244,5.0,8.0,86,0.01,,SKC,0.01,VWS V13.00,2013-01-15 06:40:00,
2013-01-15 01:41:00,59.7,55.5,30.18,SSW,198,7.0,8.0,86,0.01,,SKC,0.01,VWS V13.00,2013-01-15 06:41:00,
2013-01-15 01:45:00,59.6,55.4,30.18,WSW,239,2.0,7.0,86,0.01,,SKC,0.01,VWS V13.00,2013-01-15 06:45:00,
2013-01-15 01:46:00,59.6,55.4,30.18,SW,222,3.0,7.0,86,0.01,,SKC,0.01,VWS V13.00,2013-01-15 06:46:00,
2013-01-15 01:50:00,59.4,55.2,30.18,SW,215,5.0,6.0,86,0.01,,SKC,0.01,VWS V13.00,2013-01-15 06:50:00,
2013-01-15 01:51:00,59.4,55.2,30.18,SSW,212,3.0,6.0,86,0.01,,SKC,0.01,VWS V13.00,2013-01-15 06:51:00,
2013-01-15 01:55:00,59.2,54.7,30.18,SW,221,2.0,8.0,85,0.01,,SKC,0.01,VWS V13.00,2013-01-15 06:55:00,
2013-01-15 01:56:00,59.2,54.7,30.18,SW,221,1.0,8.0,85,0.01,,SKC,0.01,VWS V13.00,2013-01-15 06:56:00,
2013-01-15 02:00:00,59.0,54.5,30.18,SSW,211,5.0,6.0,85,0.01,,SKC,0.01,VWS V13.00,2013-01-15 07:00:00,
2013-01-15 02:01:00,59.0,54.5,30.18,SW,223,4.0,6.0,85,0.01,,SKC,0.01,VWS V13.00,2013-01-15 07:01:00,
2013-01-15 02:05:00,59.0,54.5,30.18,WSW,244,3.0,7.0,85,0.01,,SKC,0.01,VWS V13.00,2013-01-15 07:05:00,
2013-01-15 02:06:00,59.0,54.5,30.18,SSW,213,4.0,7.0,85,0.01,,SKC,0.01,VWS V13.00,2013-01-15 07:06:00,
2013-01-15 02:10:00,58.8,54.6,30.18,WSW,240,5.0,8.0,86,0.00,,SKC,0.01,VWS V13.00,2013-01-15 07:10:00,
2013-01-15 02:11:00,58.8,54.6,30.18,WSW,240,5.0,8.0,86,0.00,,SKC,0.01,VWS V13.00,2013-01-15 07:11:00,
2013-01-15 02:15:00,58.5,54.0,30.18,SW,230,2.0,6.0,85,0.00,,SKC,0.01,VWS V13.00,2013-01-15 07:15:00,
2013-01-15 02:16:00,58.5,54.0,30.18,SW,230,2.0,6.0,85,0.00,,SKC,0.01,VWS V13.00,2013-01-15 07:16:00,
2013-01-15 02:20:00,58.4,53.9,30.18,SW,228,3.0,5.0,85,0.00,,SKC,0.01,VWS V13.00,2013-01-15 07:20:00,
2013-01-15 02:21:00,58.4,53.9,30.18,SW,227,3.0,5.0,85,0.00,,SKC,0.01,VWS V13.00,2013-01-15 07:21:00,
2013-01-15 02:25:00,58.3,54.1,30.18,SSW,213,3.0,7.0,86,0.00,,SKC,0.01,VWS V13.00,2013-01-15 07:25:00,
2013-01-15 02:26:00,58.3,54.1,30.18,SSW,213,3.0,7.0,86,0.00,,SKC,0.01,VWS V13.00,2013-01-15 07:26:00,
2013-01-15 02:30:00,58.2,54.0,30.18,SW,225,2.0,6.0,86,0.00,,SKC,0.01,VWS V13.00,2013-01-15 07:30:00,
2013-01-15 02:31:00,58.2,54.0,30.18,WSW,253,2.0,6.0,86,0.00,,SKC,0.01,VWS V13.00,2013-01-15 07:31:00,
2013-01-15 02:35:00,58.2,54.0,30.18,WSW,245,2.0,6.0,86,0.00,,SKC,0.01,VWS V13.00,2013-01-15 07:35:00,
2013-01-15 02:36:00,58.2,54.0,30.18,WSW,245,3.0,6.0,86,0.00,,SKC,0.01,VWS V13.00,2013-01-15 07:36:00,
2013-01-15 02:40:00,58.3,54.1,30.18,SW,217,3.0,6.0,86,0.00,,SKC,0.01,VWS V13.00,2013-01-15 07:40:00,
2013-01-15 02:41:00,58.3,54.1,30.18,SSW,209,6.0,6.0,86,0.00,,SKC,0.01,VWS V13.00,2013-01-15 07:41:00,
2013-01-15 02:45:00,58.3,54.1,30.17,SW,217,3.0,6.0,86,0.00,,SKC,0.01,VWS V13.00,2013-01-15 07:45:00,
2013-01-15 02:46:00,58.3,54.1,30.17,SW,215,2.0,6.0,86,0.00,,SKC,0.01,VWS V13.00,2013-01-15 07:46:00,
2013-01-15 02:50:00,58.2,54.0,30.17,SW,223,1.0,5.0,86,0.00,,SKC,0.01,VWS V13.00,2013-01-15 07:50:00,
2013-01-15 02:51:00,58.2,54.0,30.17,SW,223,1.0,5.0,86,0.00,,SKC,0.01,VWS V13.00,2013-01-15 07:51:00,
2013-01-15 02:55:00,57.9,53.7,30.17,SW,215,3.0,3.0,86,0.00,,SKC,0.01,VWS V13.00,2013-01-15 07:55:00,
2013-01-15 02:56:00,57.9,53.7,30.17,SW,215,2.0,3.0,86,0.00,,SKC,0.01,VWS V13.00,2013-01-15 07:56:00,
2013-01-15 03:00:00,57.6,53.1,30.17,SSW,203,3.0,3.0,85,0.00,,SKC,0.01,VWS V13.00,2013-01-15 08:00:00,
2013-01-15 03:01:00,57.6,53.1,30.17,SSW,203,2.0,3.0,85,0.00,,SKC,0.01,VWS V13.00,2013-01-15 08:01:00,
2013-01-15 03:05:00,57.3,53.2,30.17,SSW,200,2.0,3.0,86,0.00,,SKC,0.01,VWS V13.00,2013-01-15 08:05:00,
2013-01-15 03:06:00,57.3,53.2,30.17,SSW,198,1.0,3.0,86,0.00,,SKC,0.01,VWS V13.00,2013-01-15 08:06:00,
2013-01-15 03:10:00,56.9,52.4,30.17,SSW,196,1.0,4.0,85,0.00,,SKC,0.01,VWS V13.00,2013-01-15 08:10:00,
2013-01-15 03:11:00,56.9,52.4,30.17,SSW,196,1.0,4.0,85,0.00,,SKC,0.01,VWS V13.00,2013-01-15 08:11:00,
2013-01-15 03:16:00,56.7,52.6,30.17,SSW,206,1.0,5.0,86,0.00,,SKC,0.01,VWS V13.00,2013-01-15 08:16:00,
2013-01-15 03:21:00,56.5,52.4,30.17,SW,230,3.0,4.0,86,0.00,,SKC,0.01,VWS V13.00,2013-01-15 08:21:00,
2013-01-15 03:26:00,56.8,52.7,30.16,SSW,199,2.0,10.0,86,0.00,,SKC,0.01,VWS V13.00,2013-01-15 08:26:00,
2013-01-15 03:31:00,57.2,53.1,30.16,SSW,209,5.0,5.0,86,0.00,,SKC,0.01,VWS V13.00,2013-01-15 08:31:00,
2013-01-15 03:36:00,57.3,53.2,30.16,SSW,207,4.0,5.0,86,0.00,,SKC,0.01,VWS V13.00,2013-01-15 08:36:00,
2013-01-15 03:41:00,57.5,53.3,30.16,SW,223,3.0,5.0,86,0.00,,SKC,0.01,VWS V13.00,2013-01-15 08:41:00,
2013-01-15 03:46:00,57.5,53.3,30.16,SW,216,3.0,6.0,86,0.00,,SKC,0.01,VWS V13.00,2013-01-15 08:46:00,
2013-01-15 03:51:00,57.7,53.5,30.16,SW,217,0.0,4.0,86,0.00,,SKC,0.01,VWS V13.00,2013-01-15 08:51:00,
2013-01-15 03:56:00,57.7,53.5,30.16,SSW,207,0.0,5.0,86,0.00,,SKC,0.01,VWS V13.00,2013-01-15 08:56:00,
2013-01-15 04:01:00,57.6,53.5,30.15,SSW,200,1.0,4.0,86,0.00,,SKC,0.01,VWS V13.00,2013-01-15 09:01:00,
2013-01-15 04:06:00,57.5,53.3,30.15,South,183,0.0,4.0,86,0.00,,SKC,0.01,VWS V13.00,2013-01-15 09:06:00,
2013-01-15 04:11:00,57.3,53.2,30.15,South,184,0.0,0.0,86,0.00,,SKC,0.01,VWS V13.00,2013-01-15 09:11:00,
2013-01-15 04:16:00,57.0,52.9,30.15,SSW,197,0.0,3.0,86,0.00,,SKC,0.01,VWS V13.00,2013-01-15 09:16:00,
2013-01-15 04:21:00,56.9,52.8,30.15,SSE,149,0.0,4.0,86,0.00,,SKC,0.01,VWS V13.00,2013-01-15 09:21:00,
2013-01-15 04:26:00,56.7,52.6,30.15,SSE,149,0.0,2.0,86,0.00,,SKC,0.01,VWS V13.00,2013-01-15 09:26:00,
2013-01-15 04:31:00,56.6,52.5,30.14,SSE,149,0.0,1.0,86,0.00,,SKC,0.01,VWS V13.00,2013-01-15 09:31:00,
2013-01-15 04:36:00,56.5,52.4,30.14,SSW,195,0.0,3.0,86,0.00,,SKC,0.01,VWS V13.00,2013-01-15 09:36:00,
2013-01-15 04:41:00,56.4,52.3,30.14,SSW,196,0.0,1.0,86,0.00,,SKC,0.01,VWS V13.00,2013-01-15 09:41:00,
2013-01-15 04:46:00,56.4,52.3,30.14,SSW,196,0.0,0.0,86,0.00,,SKC,0.01,VWS V13.00,2013-01-15 09:46:00,
2013-01-15 04:51:00,56.4,52.3,30.14,SSW,196,0.0,0.0,86,0.00,,SKC,0.01,VWS V13.00,2013-01-15 09:51:00,
2013-01-15 04:56:00,56.4,52.3,30.14,SSW,196,0.0,0.0,86,0.00,,SKC,0.01,VWS V13.00,2013-01-15 09:56:00,
2013-01-15 05:01:00,56.3,52.2,30.14,SSW,196,0.0,0.0,86,0.00,,SKC,0.01,VWS V13.00,2013-01-15 10:01:00,
2013-01-15 05:06:00,56.2,52.1,30.14,SSW,196,0.0,0.0,86,0.00,,SKC,0.01,VWS V13.00,2013-01-15 10:06:00,
2013-01-15 05:11:00,56.0,51.9,30.14,SSW,196,0.0,0.0,86,0.00,,SKC,0.01,VWS V13.00,2013-01-15 10:11:00,
2013-01-15 05:16:00,55.9,51.8,30.14,SSW,196,0.0,1.0,86,0.00,,SKC,0.01,VWS V13.00,2013-01-15 10:16:00,
2013-01-15 05:21:00,55.7,51.6,30.14,SSW,196,1.0,3.0,86,0.00,,SKC,0.01,VWS V13.00,2013-01-15 10:21:00,
2013-01-15 05:26:00,55.6,51.5,30.14,SSW,196,2.0,3.0,86,0.00,,SKC,0.01,VWS V13.00,2013-01-15 10:26:00,
2013-01-15 05:31:00,55.5,51.4,30.14,SSW,196,2.0,2.0,86,0.00,,SKC,0.01,VWS V13.00,2013-01-15 10:31:00,
2013-01-15 05:36:00,55.5,51.4,30.14,SSW,196,1.0,3.0,86,0.00,,SKC,0.01,VWS V13.00,2013-01-15 10:36:00,
2013-01-15 05:41:00,55.5,51.4,30.14,SSW,196,1.0,3.0,86,0.00,,SKC,0.01,VWS V13.00,2013-01-15 10:41:00,
2013-01-15 05:46:00,55.5,51.4,30.13,SSW,196,1.0,3.0,86,0.00,,SKC,0.01,VWS V13.00,2013-01-15 10:46:00,
2013-01-15 05:51:00,55.6,51.5,30.14,SSW,196,0.0,3.0,86,0.00,,SKC,0.01,VWS V13.00,2013-01-15 10:51:00,
2013-01-15 05:56:00,55.8,51.7,30.14,SSW,196,0.0,3.0,86,0.00,,SKC,0.01,VWS V13.00,2013-01-15 10:56:00,
2013-01-15 06:01:00,55.8,51.7,30.14,SSW,196,2.0,2.0,86,0.00,,SKC,0.01,VWS V13.00,2013-01-15 11:01:00,
2013-01-15 06:06:00,55.9,51.8,30.14,SSW,196,0.0,3.0,86,0.00,,SKC,0.01,VWS V13.00,2013-01-15 11:06:00,
2013-01-15 06:11:00,56.0,51.9,30.13,SSW,196,0.0,2.0,86,0.00,,SKC,0.01,VWS V13.00,2013-01-15 11:11:00,
2013-01-15 06:16:00,56.0,51.9,30.14,SSW,196,0.0,1.0,86,0.00,,SKC,0.01,VWS V13.00,2013-01-15 11:16:00,
2013-01-15 06:21:00,56.1,52.0,30.14,SSW,196,0.0,2.0,86,0.00,,SKC,0.01,VWS V13.00,2013-01-15 11:21:00,
2013-01-15 06:26:00,56.2,52.1,30.14,SSW,196,0.0,2.0,86,0.00,,SKC,0.01,VWS V13.00,2013-01-15 11:26:00,
2013-01-15 06:31:00,56.3,52.2,30.14,SSW,198,0.0,2.0,86,0.00,,SKC,0.01,VWS V13.00,2013-01-15 11:31:00,
2013-01-15 06:36:00,56.4,52.3,30.15,SSW,204,0.0,2.0,86,0.00,,SKC,0.01,VWS V13.00,2013-01-15 11:36:00,
2013-01-15 06:41:00,56.5,52.4,30.15,SSW,204,0.0,0.0,86,0.00,,SKC,0.01,VWS V13.00,2013-01-15 11:41:00,
2013-01-15 06:46:00,56.5,52.4,30.15,SSW,204,0.0,0.0,86,0.00,,SKC,0.01,VWS V13.00,2013-01-15 11:46:00,
2013-01-15 06:51:00,56.5,52.4,30.15,SSW,204,0.0,1.0,86,0.00,,SKC,0.01,VWS V13.00,2013-01-15 11:51:00,
2013-01-15 06:56:00,56.6,52.5,30.15,NNW,342,2.0,4.0,86,0.00,,SKC,0.01,VWS V13.00,2013-01-15 11:56:00,
2013-01-15 07:01:00,56.8,52.7,30.16,North,349,4.0,5.0,86,0.00,,SKC,0.01,VWS V13.00,2013-01-15 12:01:00,
2013-01-15 07:06:00,57.5,53.3,30.16,North,350,3.0,8.0,86,0.00,,SKC,0.01,VWS V13.00,2013-01-15 12:06:00,
2013-01-15 07:11:00,58.1,53.9,30.16,NW,318,1.0,5.0,86,0.00,,SKC,0.01,VWS V13.00,2013-01-15 12:11:00,
2013-01-15 07:16:00,58.5,54.3,30.16,NNW,336,0.0,5.0,86,0.00,,SKC,0.01,VWS V13.00,2013-01-15 12:16:00,
2013-01-15 07:21:00,59.0,54.8,30.17,NNW,343,2.0,5.0,86,0.00,,SKC,0.01,VWS V13.00,2013-01-15 12:21:00,
2013-01-15 07:26:00,59.3,55.1,30.17,NNW,342,0.0,6.0,86,0.00,,SKC,0.01,VWS V13.00,2013-01-15 12:26:00,
2013-01-15 07:31:00,59.6,55.4,30.17,North,355,3.0,6.0,86,0.00,,SKC,0.01,VWS V13.00,2013-01-15 12:31:00,
2013-01-15 07:36:00,60.0,55.8,30.17,North,360,3.0,6.0,86,0.00,,SKC,0.01,VWS V13.00,2013-01-15 12:36:00,
2013-01-15 07:41:00,60.4,56.2,30.17,North,5,0.0,7.0,86,0.00,,SKC,0.01,VWS V13.00,2013-01-15 12:41:00,
2013-01-15 07:46:00,60.5,56.3,30.17,NNE,29,0.0,5.0,86,0.00,,SKC,0.01,VWS V13.00,2013-01-15 12:46:00,
2013-01-15 07:51:00,60.7,56.5,30.17,NE,41,0.0,5.0,86,0.00,,SKC,0.01,VWS V13.00,2013-01-15 12:51:00,
2013-01-15 07:56:00,60.8,56.6,30.17,North,9,4.0,4.0,86,0.00,,SKC,0.01,VWS V13.00,2013-01-15 12:56:00,
2013-01-15 08:01:00,60.9,56.7,30.17,NNE,13,2.0,4.0,86,0.00,,SKC,0.01,VWS V13.00,2013-01-15 13:01:00,
2013-01-15 08:06:00,61.0,56.8,30.18,NE,34,0.0,5.0,86,0.00,,SKC,0.01,VWS V13.00,2013-01-15 13:06:00,
2013-01-15 08:11:00,61.0,56.8,30.18,NNE,24,0.0,5.0,86,0.00,,SKC,0.01,VWS V13.00,2013-01-15 13:11:00,
2013-01-15 08:16:00,61.1,56.9,30.18,ENE,71,3.0,5.0,86,0.00,,SKC,0.01,VWS V13.00,2013-01-15 13:16:00,
2013-01-15 08:21:00,61.0,56.8,30.18,East,101,1.0,5.0,86,0.00,,SKC,0.01,VWS V13.00,2013-01-15 13:21:00,
2013-01-15 08:26:00,60.9,56.7,30.19,East,86,4.0,6.0,86,0.00,,SKC,0.01,VWS V13.00,2013-01-15 13:26:00,
2013-01-15 08:31:00,60.6,56.4,30.19,East,82,5.0,6.0,86,0.00,,SKC,0.01,VWS V13.00,2013-01-15 13:31:00,
2013-01-15 08:36:00,60.2,56.0,30.19,ENE,73,0.0,4.0,86,0.00,,SKC,0.01,VWS V13.00,2013-01-15 13:36:00,
2013-01-15 08:41:00,59.7,55.5,30.20,ENE,71,2.0,5.0,86,0.00,,SKC,0.01,VWS V13.00,2013-01-15 13:41:00,
2013-01-15 08:46:00,59.0,54.8,30.20,ENE,67,4.0,9.0,86,0.00,,SKC,0.01,VWS V13.00,2013-01-15 13:46:00,
2013-01-15 08:51:00,58.8,54.6,30.20,NE,49,6.0,7.0,86,0.00,,SKC,0.01,VWS V13.00,2013-01-15 13:51:00,
2013-01-15 08:56:00,58.4,54.2,30.20,East,80,3.0,6.0,86,0.00,,SKC,0.01,VWS V13.00,2013-01-15 13:56:00,
2013-01-15 09:01:00,58.3,54.1,30.20,East,86,4.0,8.0,86,0.00,,SKC,0.01,VWS V13.00,2013-01-15 14:01:00,
2013-01-15 09:06:00,58.1,53.9,30.20,East,94,6.0,9.0,86,0.00,,SKC,0.01,VWS V13.00,2013-01-15 14:06:00,
2013-01-15 09:11:00,58.1,53.9,30.20,East,85,4.0,7.0,86,0.00,,SKC,0.01,VWS V13.00,2013-01-15 14:11:00,
2013-01-15 09:16:00,58.0,53.8,30.20,NE,55,3.0,8.0,86,0.00,,SKC,0.01,VWS V13.00,2013-01-15 14:16:00,
2013-01-15 09:21:00,57.6,53.5,30.20,East,86,6.0,8.0,86,0.00,,SKC,0.01,VWS V13.00,2013-01-15 14:21:00,
2013-01-15 09:26:00,57.5,53.3,30.20,ENE,76,7.0,7.0,86,0.00,,SKC,0.01,VWS V13.00,2013-01-15 14:26:00,
2013-01-15 09:31:00,57.6,53.5,30.21,ENE,78,1.0,7.0,86,0.00,,SKC,0.01,VWS V13.00,2013-01-15 14:31:00,
2013-01-15 09:36:00,57.5,53.3,30.21,ENE,72,6.0,7.0,86,0.00,,SKC,0.01,VWS V13.00,2013-01-15 14:36:00,
2013-01-15 09:41:00,57.5,53.3,30.21,ENE,62,6.0,6.0,86,0.00,,SKC,0.01,VWS V13.00,2013-01-15 14:41:00,
2013-01-15 09:46:00,57.2,53.1,30.20,NE,54,4.0,8.0,86,0.00,,SKC,0.01,VWS V13.00,2013-01-15 14:46:00,
2013-01-15 09:51:00,56.9,52.8,30.21,East,86,5.0,7.0,86,0.00,,SKC,0.01,VWS V13.00,2013-01-15 14:51:00,
2013-01-15 09:56:00,56.9,52.8,30.21,ENE,61,3.0,6.0,86,0.00,,SKC,0.01,VWS V13.00,2013-01-15 14:56:00,
2013-01-15 10:01:00,57.1,53.0,30.21,ENE,64,4.0,7.0,86,0.00,,SKC,0.01,VWS V13.00,2013-01-15 15:01:00,
2013-01-15 10:06:00,57.0,52.9,30.21,East,84,4.0,8.0,86,0.00,,SKC,0.01,VWS V13.00,2013-01-15 15:06:00,
2013-01-15 10:11:00,57.0,52.9,30.21,East,89,4.0,6.0,86,0.00,,SKC,0.01,VWS V13.00,2013-01-15 15:11:00,
2013-01-15 10:16:00,57.1,53.0,30.21,NE,48,3.0,6.0,86,0.00,,SKC,0.01,VWS V13.00,2013-01-15 15:16:00,
2013-01-15 10:21:00,57.3,53.2,30.21,ENE,65,2.0,5.0,86,0.00,,SKC,0.01,VWS V13.00,2013-01-15 15:21:00,
2013-01-15 10:26:00,57.4,53.2,30.21,NNE,32,0.0,4.0,86,0.00,,SKC,0.01,VWS V13.00,2013-01-15 15:26:00,
2013-01-15 10:31:00,57.5,53.3,30.20,NE,44,0.0,4.0,86,0.00,,SKC,0.01,VWS V13.00,2013-01-15 15:31:00,
2013-01-15 10:36:00,57.7,53.5,30.20,ENE,70,0.0,3.0,86,0.00,,SKC,0.01,VWS V13.00,2013-01-15 15:36:00,
2013-01-15 10:41:00,57.9,53.7,30.20,ENE,65,2.0,4.0,86,0.00,,SKC,0.01,VWS V13.00,2013-01-15 15:41:00,
2013-01-15 10:46:00,58.2,54.0,30.20,ENE,65,4.0,4.0,86,0.00,,SKC,0.01,VWS V13.00,2013-01-15 15:46:00,
2013-01-15 10:51:00,58.4,54.2,30.20,East,94,2.0,4.0,86,0.00,,SKC,0.01,VWS V13.00,2013-01-15 15:51:00,
2013-01-15 10:56:00,58.4,54.2,30.20,ENE,57,0.0,4.0,86,0.00,,SKC,0.01,VWS V13.00,2013-01-15 15:56:00,
2013-01-15 11:01:00,58.6,54.4,30.19,NNE,13,0.0,4.0,86,0.00,,SKC,0.01,VWS V13.00,2013-01-15 16:01:00,
2013-01-15 11:06:00,59.0,54.8,30.19,NNE,20,0.0,3.0,86,0.00,,SKC,0.01,VWS V13.00,2013-01-15 16:06:00,
2013-01-15 11:11:00,59.0,54.8,30.19,ENE,75,0.0,5.0,86,0.00,,SKC,0.01,VWS V13.00,2013-01-15 16:11:00,
2013-01-15 11:16:00,59.1,54.9,30.19,North,360,3.0,5.0,86,0.00,,SKC,0.01,VWS V13.00,2013-01-15 16:16:00,
2013-01-15 11:21:00,59.4,55.2,30.19,NE,52,2.0,4.0,86,0.00,,SKC,0.01,VWS V13.00,2013-01-15 16:21:00,
2013-01-15 11:26:00,59.6,55.4,30.19,ESE,118,6.0,6.0,86,0.00,,SKC,0.01,VWS V13.00,2013-01-15 16:26:00,
2013-01-15 11:31:00,59.0,54.8,30.18,ESE,107,5.0,9.0,86,0.00,,SKC,0.01,VWS V13.00,2013-01-15 16:31:00,
2013-01-15 11:36:00,58.7,54.5,30.18,East,100,5.0,7.0,86,0.00,,SKC,0.01,VWS V13.00,2013-01-15 16:36:00,
2013-01-15 11:41:00,58.4,54.2,30.18,East,98,7.0,9.0,86,0.00,,SKC,0.01,VWS V13.00,2013-01-15 16:41:00,
2013-01-15 11:46:00,58.2,54.0,30.18,ESE,107,4.0,8.0,86,0.00,,SKC,0.01,VWS V13.00,2013-01-15 16:46:00,
2013-01-15 11:51:00,58.2,54.0,30.18,ESE,109,7.0,9.0,86,0.00,,SKC,0.01,VWS V13.00,2013-01-15 16:51:00,
2013-01-15 11:56:00,58.1,53.9,30.18,ENE,75,5.0,8.0,86,0.00,,SKC,0.01,VWS V13.00,2013-01-15 16:56:00,
2013-01-15 12:01:00,58.1,53.9,30.18,ESE,105,7.0,8.0,86,0.00,,SKC,0.01,VWS V13.00,2013-01-15 17:01:00,
2013-01-15 12:06:00,58.2,54.0,30.17,ESE,105,7.0,7.0,86,0.00,,SKC,0.01,VWS V13.00,2013-01-15 17:06:00,
2013-01-15 12:11:00,58.1,53.9,30.17,SE,125,4.0,9.0,86,0.00,,SKC,0.01,VWS V13.00,2013-01-15 17:11:00,
2013-01-15 12:16:00,58.2,54.0,30.17,ESE,106,6.0,7.0,86,0.00,,SKC,0.01,VWS V13.00,2013-01-15 17:16:00,
2013-01-15 12:21:00,58.6,54.4,30.17,ESE,103,4.0,6.0,86,0.00,,SKC,0.01,VWS V13.00,2013-01-15 17:21:00,
2013-01-15 12:26:00,59.0,54.8,30.16,ESE,120,4.0,6.0,86,0.00,,SKC,0.01,VWS V13.00,2013-01-15 17:26:00,
2013-01-15 12:31:00,59.0,54.8,30.16,East,101,7.0,7.0,86,0.00,,SKC,0.01,VWS V13.00,2013-01-15 17:31:00,
2013-01-15 12:36:00,59.3,55.1,30.16,ESE,117,7.0,9.0,86,0.00,,SKC,0.01,VWS V13.00,2013-01-15 17:36:00,
2013-01-15 12:41:00,59.1,54.9,30.15,SE,129,5.0,9.0,86,0.00,,SKC,0.01,VWS V13.00,2013-01-15 17:41:00,
2013-01-15 12:46:00,59.4,55.2,30.15,ESE,103,4.0,7.0,86,0.00,,SKC,0.01,VWS V13.00,2013-01-15 17:46:00,
2013-01-15 12:51:00,59.9,55.7,30.15,ENE,69,0.0,5.0,86,0.00,,SKC,0.01,VWS V13.00,2013-01-15 17:51:00,
2013-01-15 12:56:00,60.8,56.6,30.15,ESE,122,6.0,6.0,86,0.00,,SKC,0.01,VWS V13.00,2013-01-15 17:56:00,
2013-01-15 13:01:00,61.0,56.8,30.15,East,92,6.0,8.0,86,0.00,,SKC,0.01,VWS V13.00,2013-01-15 18:01:00,
2013-01-15 13:06:00,60.7,56.2,30.15,ESE,113,7.0,8.0,85,0.00,,SKC,0.01,VWS V13.00,2013-01-15 18:06:00,
2013-01-15 13:11:00,60.4,55.9,30.15,East,98,7.0,8.0,85,0.00,,SKC,0.01,VWS V13.00,2013-01-15 18:11:00,
2013-01-15 13:16:00,60.1,55.6,30.15,East,97,5.0,8.0,85,0.00,,SKC,0.01,VWS V13.00,2013-01-15 18:16:00,
2013-01-15 13:21:00,60.0,55.5,30.15,East,92,5.0,8.0,85,0.00,,SKC,0.01,VWS V13.00,2013-01-15 18:21:00,
2013-01-15 13:26:00,59.8,55.3,30.15,SE,127,7.0,9.0,85,0.00,,SKC,0.01,VWS V13.00,2013-01-15 18:26:00,
2013-01-15 13:31:00,59.3,54.8,30.15,SE,124,7.0,9.0,85,0.00,,SKC,0.01,VWS V13.00,2013-01-15 18:31:00,
2013-01-15 13:36:00,59.0,54.5,30.15,ESE,121,6.0,12.0,85,0.00,,SKC,0.01,VWS V13.00,2013-01-15 18:36:00,
2013-01-15 13:41:00,58.8,54.6,30.15,ESE,113,4.0,9.0,86,0.00,,SKC,0.01,VWS V13.00,2013-01-15 18:41:00,
2013-01-15 13:46:00,58.8,54.6,30.15,ESE,121,5.0,6.0,86,0.00,,SKC,0.01,VWS V13.00,2013-01-15 18:46:00,
2013-01-15 13:51:00,59.0,54.8,30.15,ESE,108,2.0,6.0,86,0.00,,SKC,0.01,VWS V13.00,2013-01-15 18:51:00,
2013-01-15 13:56:00,59.0,54.8,30.15,ESE,106,5.0,6.0,86,0.00,,SKC,0.01,VWS V13.00,2013-01-15 18:56:00,
2013-01-15 14:01:00,59.0,54.8,30.15,East,89,3.0,5.0,86,0.00,,SKC,0.01,VWS V13.00,2013-01-15 19:01:00,
2013-01-15 14:06:00,59.0,54.8,30.15,ESE,105,1.0,5.0,86,0.00,,SKC,0.01,VWS V13.00,2013-01-15 19:06:00,
2013-01-15 14:11:00,59.1,54.9,30.15,ENE,63,2.0,4.0,86,0.00,,SKC,0.01,VWS V13.00,2013-01-15 19:11:00,
2013-01-15 14:16:00,59.5,55.3,30.15,ENE,65,2.0,3.0,86,0.00,,SKC,0.01,VWS V13.00,2013-01-15 19:16:00,
2013-01-15 14:21:00,59.8,55.6,30.15,ENE,65,2.0,2.0,86,0.00,,SKC,0.01,VWS V13.00,2013-01-15 19:21:00,
2013-01-15 14:26:00,60.2,56.0,30.15,SE,127,1.0,5.0,86,0.00,,SKC,0.01,VWS V13.00,2013-01-15 19:26:00,
2013-01-15 14:31:00,60.2,56.0,30.15,SE,134,7.0,9.0,86,0.00,,SKC,0.01,VWS V13.00,2013-01-15 19:31:00,
2013-01-15 14:36:00,59.6,55.1,30.15,SE,140,5.0,7.0,85,0.00,,SKC,0.01,VWS V13.00,2013-01-15 19:36:00,
2013-01-15 14:41:00,59.0,54.5,30.15,East,98,2.0,7.0,85,0.00,,SKC,0.01,VWS V13.00,2013-01-15 19:41:00,
2013-01-15 14:46:00,58.7,54.5,30.16,East,91,2.0,7.0,86,0.00,,SKC,0.01,VWS V13.00,2013-01-15 19:46:00,
2013-01-15 14:51:00,58.2,54.0,30.15,East,90,5.0,6.0,86,0.00,,SKC,0.01,VWS V13.00,2013-01-15 19:51:00,
2013-01-15 14:56:00,58.0,53.8,30.16,East,100,4.0,7.0,86,0.00,,SKC,0.01,VWS V13.00,2013-01-15 19:56:00,
2013-01-15 15:01:00,58.0,53.8,30.16,East,79,3.0,7.0,86,0.00,,SKC,0.01,VWS V13.00,2013-01-15 20:01:00,
2013-01-15 15:06:00,58.1,53.9,30.15,ESE,105,6.0,7.0,86,0.00,,SKC,0.01,VWS V13.00,2013-01-15 20:06:00,
2013-01-15 15:11:00,58.1,53.9,30.15,ESE,105,2.0,7.0,86,0.00,,SKC,0.01,VWS V13.00,2013-01-15 20:11:00,
2013-01-15 15:16:00,58.0,53.8,30.15,East,88,3.0,7.0,86,0.00,,SKC,0.01,VWS V13.00,2013-01-15 20:16:00,
2013-01-15 15:21:00,58.1,53.9,30.15,ENE,72,3.0,8.0,86,0.00,,SKC,0.01,VWS V13.00,2013-01-15 20:21:00,
2013-01-15 15:26:00,58.2,54.0,30.15,ENE,72,4.0,9.0,86,0.00,,SKC,0.01,VWS V13.00,2013-01-15 20:26:00,
2013-01-15 15:31:00,58.4,54.2,30.15,East,88,4.0,9.0,86,0.00,,SKC,0.01,VWS V13.00,2013-01-15 20:31:00,
2013-01-15 15:36:00,58.4,54.2,30.16,East,81,6.0,9.0,86,0.00,,SKC,0.01,VWS V13.00,2013-01-15 20:36:00,
2013-01-15 15:41:00,58.4,54.2,30.16,East,95,5.0,8.0,86,0.00,,SKC,0.01,VWS V13.00,2013-01-15 20:41:00,
2013-01-15 15:46:00,58.4,54.2,30.15,ESE,103,4.0,8.0,86,0.00,,SKC,0.01,VWS V13.00,2013-01-15 20:46:00,
2013-01-15 15:51:00,58.4,54.2,30.15,ESE,105,6.0,9.0,86,0.00,,SKC,0.01,VWS V13.00,2013-01-15 20:51:00,
2013-01-15 15:56:00,58.5,54.3,30.16,East,95,8.0,11.0,86,0.00,,SKC,0.01,VWS V13.00,2013-01-15 20:56:00,
2013-01-15 16:01:00,58.6,54.4,30.16,East,96,7.0,11.0,86,0.00,,SKC,0.01,VWS V13.00,2013-01-15 21:01:00,
2013-01-15 16:06:00,58.7,54.5,30.16,NE,38,5.0,9.0,86,0.00,,SKC,0.01,VWS V13.00,2013-01-15 21:06:00,
2013-01-15 16:11:00,58.8,54.6,30.16,ENE,69,4.0,7.0,86,0.00,,SKC,0.01,VWS V13.00,2013-01-15 21:11:00,
2013-01-15 16:16:00,58.9,54.7,30.16,ESE,105,6.0,8.0,86,0.00,,SKC,0.01,VWS V13.00,2013-01-15 21:16:00,
2013-01-15 16:21:00,58.9,54.7,30.16,East,90,6.0,6.0,86,0.00,,SKC,0.01,VWS V13.00,2013-01-15 21:21:00,
2013-01-15 16:26:00,59.0,54.8,30.16,ENE,70,4.0,7.0,86,0.00,,SKC,0.01,VWS V13.00,2013-01-15 21:26:00,
2013-01-15 16:31:00,59.0,54.8,30.16,East,88,4.0,7.0,86,0.00,,SKC,0.01,VWS V13.00,2013-01-15 21:31:00,
2013-01-15 16:36:00,59.3,55.1,30.16,ENE,61,5.0,10.0,86,0.00,,SKC,0.01,VWS V13.00,2013-01-15 21:36:00,
2013-01-15 16:41:00,59.4,55.2,30.16,East,85,5.0,11.0,86,0.00,,SKC,0.01,VWS V13.00,2013-01-15 21:41:00,
2013-01-15 16:46:00,59.2,54.7,30.16,NE,47,5.0,11.0,85,0.00,,SKC,0.01,VWS V13.00,2013-01-15 21:46:00,
2013-01-15 16:51:00,59.0,54.5,30.17,ENE,69,2.0,10.0,85,0.00,,SKC,0.01,VWS V13.00,2013-01-15 21:51:00,
2013-01-15 16:56:00,59.0,54.8,30.16,NE,38,6.0,10.0,86,0.00,,SKC,0.01,VWS V13.00,2013-01-15 21:56:00,
2013-01-15 17:01:00,59.0,54.8,30.16,ENE,69,4.0,11.0,86,0.00,,SKC,0.01,VWS V13.00,2013-01-15 22:01:00,
2013-01-15 17:06:00,58.8,54.6,30.16,NE,55,7.0,12.0,86,0.00,,SKC,0.01,VWS V13.00,2013-01-15 22:06:00,
2013-01-15 17:11:00,58.6,54.1,30.16,NNE,30,8.0,9.0,85,0.00,,SKC,0.01,VWS V13.00,2013-01-15 22:11:00,
2013-01-15 17:16:00,58.4,53.9,30.16,ENE,65,7.0,15.0,85,0.00,,SKC,0.01,VWS V13.00,2013-01-15 22:16:00,
2013-01-15 17:21:00,58.2,54.0,30.16,ENE,74,6.0,10.0,86,0.00,,SKC,0.01,VWS V13.00,2013-01-15 22:21:00,
2013-01-15 17:26:00,58.0,53.8,30.17,ENE,69,6.0,8.0,86,0.00,,SKC,0.01,VWS V13.00,2013-01-15 22:26:00,
2013-01-15 17:31:00,57.7,53.2,30.17,NE,54,2.0,9.0,85,0.00,,SKC,0.01,VWS V13.00,2013-01-15 22:31:00,
2013-01-15 17:36:00,57.5,53.3,30.17,NE,49,5.0,9.0,86,0.00,,SKC,0.01,VWS V13.00,2013-01-15 22:36:00,
2013-01-15 17:41:00,57.2,53.1,30.17,ENE,64,8.0,11.0,86,0.00,,SKC,0.01,VWS V13.00,2013-01-15 22:41:00,
2013-01-15 17:46:00,57.0,52.9,30.17,NE,41,3.0,11.0,86,0.00,,SKC,0.01,VWS V13.00,2013-01-15 22:46:00,
2013-01-15 17:51:00,56.8,52.7,30.17,NE,39,4.0,10.0,86,0.00,,SKC,0.01,VWS V13.00,2013-01-15 22:51:00,
2013-01-15 17:56:00,56.6,52.5,30.17,East,85,4.0,10.0,86,0.00,,SKC,0.01,VWS V13.00,2013-01-15 22:56:00,
2013-01-15 18:01:00,56.4,52.3,30.18,ENE,68,5.0,7.0,86,0.00,,SKC,0.01,VWS V13.00,2013-01-15 23:01:00,
2013-01-15 18:06:00,56.2,52.1,30.17,NE,50,3.0,6.0,86,0.00,,SKC,0.01,VWS V13.00,2013-01-15 23:06:00,
2013-01-15 18:11:00,56.0,51.9,30.18,ENE,57,6.0,11.0,86,0.00,,SKC,0.01,VWS V13.00,2013-01-15 23:11:00,
2013-01-15 18:16:00,55.9,51.8,30.18,East,101,4.0,10.0,86,0.00,,SKC,0.01,VWS V13.00,2013-01-15 23:16:00,
2013-01-15 18:21:00,55.8,51.7,30.18,NNE,23,3.0,9.0,86,0.00,,SKC,0.01,VWS V13.00,2013-01-15 23:21:00,
2013-01-15 18:26:00,55.6,51.5,30.18,ENE,69,2.0,8.0,86,0.00,,SKC,0.01,VWS V13.00,2013-01-15 23:26:00,
2013-01-15 18:31:00,55.5,51.4,30.18,ENE,69,4.0,6.0,86,0.00,,SKC,0.01,VWS V13.00,2013-01-15 23:31:00,
2013-01-15 18:36:00,55.4,51.3,30.18,ENE,76,3.0,8.0,86,0.00,,SKC,0.01,VWS V13.00,2013-01-15 23:36:00,
2013-01-15 18:41:00,55.3,51.2,30.18,East,97,5.0,8.0,86,0.00,,SKC,0.01,VWS V13.00,2013-01-15 23:41:00,
2013-01-15 18:46:00,55.2,51.1,30.18,ENE,69,5.0,8.0,86,0.00,,SKC,0.01,VWS V13.00,2013-01-15 23:46:00,
2013-01-15 18:51:00,55.1,51.0,30.18,NE,38,2.0,11.0,86,0.00,,SKC,0.01,VWS V13.00,2013-01-15 23:51:00,
2013-01-15 18:56:00,55.1,51.0,30.18,NE,36,3.0,8.0,86,0.00,,SKC,0.01,VWS V13.00,2013-01-15 23:56:00,
2013-01-15 19:01:00,55.0,50.9,30.18,NE,40,3.0,7.0,86,0.00,,SKC,0.01,VWS V13.00,2013-01-16 00:01:00,
2013-01-15 19:06:00,55.0,50.9,30.17,ENE,61,2.0,7.0,86,0.00,,SKC,0.01,VWS V13.00,2013-01-16 00:06:00,
2013-01-15 19:11:00,54.9,50.8,30.17,East,88,4.0,10.0,86,0.00,,SKC,0.01,VWS V13.00,2013-01-16 00:11:00,
2013-01-15 19:16:00,54.9,50.8,30.17,NNE,23,0.0,10.0,86,0.00,,SKC,0.01,VWS V13.00,2013-01-16 00:16:00,
2013-01-15 19:21:00,54.8,50.7,30.17,East,84,2.0,8.0,86,0.00,,SKC,0.01,VWS V13.00,2013-01-16 00:21:00,
2013-01-15 19:26:00,54.8,50.7,30.17,East,83,4.0,8.0,86,0.00,,SKC,0.01,VWS V13.00,2013-01-16 00:26:00,
2013-01-15 19:31:00,54.8,50.7,30.16,ENE,69,2.0,10.0,86,0.00,,SKC,0.01,VWS V13.00,2013-01-16 00:31:00,
2013-01-15 19:36:00,54.8,50.7,30.16,ENE,61,8.0,11.0,86,0.00,,SKC,0.01,VWS V13.00,2013-01-16 00:36:00,
2013-01-15 19:41:00,54.8,50.7,30.16,East,95,8.0,11.0,86,0.00,,SKC,0.01,VWS V13.00,2013-01-16 00:41:00,
2013-01-15 19:46:00,54.8,50.7,30.16,East,96,5.0,10.0,86,0.00,,SKC,0.01,VWS V13.00,2013-01-16 00:46:00,
2013-01-15 19:51:00,54.8,50.7,30.16,ENE,73,7.0,12.0,86,0.00,,SKC,0.01,VWS V13.00,2013-01-16 00:51:00,
2013-01-15 19:56:00,54.7,50.6,30.16,ENE,76,7.0,10.0,86,0.00,,SKC,0.01,VWS V13.00,2013-01-16 00:56:00,
2013-01-15 20:01:00,54.6,50.5,30.16,East,94,7.0,11.0,86,0.00,,SKC,0.01,VWS V13.00,2013-01-16 01:01:00,
2013-01-15 20:06:00,54.5,50.4,30.16,East,84,4.0,7.0,86,0.00,,SKC,0.01,VWS V13.00,2013-01-16 01:06:00,
2013-01-15 20:11:00,54.5,50.4,30.16,ENE,71,6.0,10.0,86,0.00,,SKC,0.01,VWS V13.00,2013-01-16 01:11:00,
2013-01-15 20:16:00,54.5,50.4,30.16,NNE,30,6.0,10.0,86,0.00,,SKC,0.01,VWS V13.00,2013-01-16 01:16:00,
2013-01-15 20:21:00,54.5,50.4,30.15,East,80,5.0,10.0,86,0.00,,SKC,0.01,VWS V13.00,2013-01-16 01:21:00,
2013-01-15 20:26:00,54.5,50.4,30.15,NE,36,2.0,7.0,86,0.00,,SKC,0.01,VWS V13.00,2013-01-16 01:26:00,
2013-01-15 20:31:00,54.4,50.3,30.15,East,97,4.0,5.0,86,0.00,,SKC,0.01,VWS V13.00,2013-01-16 01:31:00,
2013-01-15 20:36:00,54.4,50.3,30.16,NE,35,0.0,6.0,86,0.00,,SKC,0.01,VWS V13.00,2013-01-16 01:36:00,
2013-01-15 20:41:00,54.4,50.3,30.16,ENE,71,0.0,6.0,86,0.00,,SKC,0.01,VWS V13.00,2013-01-16 01:41:00,
2013-01-15 20:46:00,54.4,50.3,30.15,East,94,4.0,7.0,86,0.00,,SKC,0.01,VWS V13.00,2013-01-16 01:46:00,
2013-01-15 20:51:00,54.4,50.3,30.15,ENE,78,4.0,7.0,86,0.00,,SKC,0.01,VWS V13.00,2013-01-16 01:51:00,
2013-01-15 20:56:00,54.4,50.3,30.15,East,84,4.0,6.0,86,0.00,,SKC,0.01,VWS V13.00,2013-01-16 01:56:00,
2013-01-15 21:01:00,54.5,50.4,30.14,ENE,73,5.0,6.0,86,0.00,,SKC,0.01,VWS V13.00,2013-01-16 02:01:00,
2013-01-15 21:06:00,54.6,50.5,30.15,East,98,7.0,9.0,86,0.00,,SKC,0.01,VWS V13.00,2013-01-16 02:06:00,
2013-01-15 21:11:00,54.5,50.4,30.15,East,94,8.0,9.0,86,0.00,,SKC,0.01,VWS V13.00,2013-01-16 02:11:00,
2013-01-15 21:16:00,54.6,50.5,30.14,NE,38,0.0,9.0,86,0.00,,SKC,0.01,VWS V13.00,2013-01-16 02:16:00,
2013-01-15 21:21:00,54.6,50.5,30.14,East,80,1.0,4.0,86,0.00,,SKC,0.01,VWS V13.00,2013-01-16 02:21:00,
2013-01-15 21:26:00,54.6,50.5,30.14,ENE,62,5.0,5.0,86,0.00,,SKC,0.01,VWS V13.00,2013-01-16 02:26:00,
2013-01-15 21:31:00,54.7,50.6,30.14,NE,44,5.0,6.0,86,0.00,,SKC,0.01,VWS V13.00,2013-01-16 02:31:00,
2013-01-15 21:36:00,54.7,50.6,30.14,SSE,163,4.0,6.0,86,0.01,,SKC,0.02,VWS V13.00,2013-01-16 02:36:00,
2013-01-15 21:41:00,54.8,50.7,30.13,East,88,3.0,5.0,86,0.01,,SKC,0.02,VWS V13.00,2013-01-16 02:41:00,
2013-01-15 21:46:00,54.9,50.8,30.13,ENE,62,5.0,7.0,86,0.01,,SKC,0.02,VWS V13.00,2013-01-16 02:46:00,
2013-01-15 21:51:00,54.9,50.8,30.14,NNE,30,0.0,6.0,86,0.01,,SKC,0.02,VWS V13.00,2013-01-16 02:51:00,
2013-01-15 21:56:00,54.9,50.8,30.14,NNE,20,3.0,3.0,86,0.01,,SKC,0.02,VWS V13.00,2013-01-16 02:56:00,
2013-01-15 22:01:00,54.9,50.8,30.13,NE,51,0.0,4.0,86,0.01,,SKC,0.02,VWS V13.00,2013-01-16 03:01:00,
2013-01-15 22:06:00,55.0,50.9,30.13,ENE,74,4.0,5.0,86,0.01,,SKC,0.02,VWS V13.00,2013-01-16 03:06:00,
2013-01-15 22:11:00,55.1,51.0,30.13,ENE,78,4.0,5.0,86,0.01,,SKC,0.02,VWS V13.00,2013-01-16 03:11:00,
2013-01-15 22:16:00,55.2,51.1,30.12,ENE,75,1.0,4.0,86,0.01,,SKC,0.02,VWS V13.00,2013-01-16 03:16:00,
2013-01-15 22:21:00,55.4,51.3,30.12,East,89,4.0,6.0,86,0.01,,SKC,0.02,VWS V13.00,2013-01-16 03:21:00,
2013-01-15 22:26:00,55.7,51.6,30.12,NE,46,1.0,5.0,86,0.01,,SKC,0.02,VWS V13.00,2013-01-16 03:26:00,
2013-01-15 22:31:00,55.8,51.7,30.12,East,82,1.0,6.0,86,0.01,,SKC,0.02,VWS V13.00,2013-01-16 03:31:00,
2013-01-15 22:36:00,56.0,51.9,30.11,ENE,78,0.0,4.0,86,0.01,,SKC,0.02,VWS V13.00,2013-01-16 03:36:00,
2013-01-15 22:41:00,56.0,51.9,30.11,East,100,4.0,5.0,86,0.00,,SKC,0.02,VWS V13.00,2013-01-16 03:41:00,
2013-01-15 22:46:00,56.0,51.9,30.11,East,81,1.0,4.0,86,0.00,,SKC,0.02,VWS V13.00,2013-01-16 03:46:00,
2013-01-15 22:51:00,56.0,51.9,30.11,East,80,0.0,1.0,86,0.00,,SKC,0.02,VWS V13.00,2013-01-16 03:51:00,
2013-01-15 22:56:00,56.1,52.0,30.11,East,82,2.0,4.0,86,0.00,,SKC,0.02,VWS V13.00,2013-01-16 03:56:00,
2013-01-15 23:01:00,56.1,52.0,30.11,East,80,3.0,4.0,86,0.00,,SKC,0.02,VWS V13.00,2013-01-16 04:01:00,
2013-01-15 23:06:00,56.1,52.0,30.10,ENE,77,1.0,4.0,86,0.00,,SKC,0.02,VWS V13.00,2013-01-16 04:06:00,
2013-01-15 23:11:00,56.1,52.0,30.10,ENE,67,1.0,3.0,86,0.00,,SKC,0.02,VWS V13.00,2013-01-16 04:11:00,
2013-01-15 23:16:00,56.1,52.0,30.10,NE,56,2.0,4.0,86,0.00,,SKC,0.02,VWS V13.00,2013-01-16 04:16:00,
2013-01-15 23:21:00,56.1,52.0,30.10,East,92,2.0,4.0,86,0.00,,SKC,0.02,VWS V13.00,2013-01-16 04:21:00,
2013-01-15 23:26:00,56.1,52.0,30.10,ENE,76,1.0,4.0,86,0.00,,SKC,0.02,VWS V13.00,2013-01-16 04:26:00,
2013-01-15 23:31:00,56.2,52.1,30.10,East,85,1.0,5.0,86,0.00,,SKC,0.02,VWS V13.00,2013-01-16 04:31:00,
2013-01-15 23:36:00,56.2,52.1,30.09,East,88,2.0,5.0,86,0.00,,SKC,0.02,VWS V13.00,2013-01-16 04:36:00,
2013-01-15 23:41:00,56.3,52.2,30.09,ENE,76,1.0,4.0,86,0.00,,SKC,0.02,VWS V13.00,2013-01-16 04:41:00,
2013-01-15 23:46:00,56.4,52.3,30.09,East,94,4.0,4.0,86,0.00,,SKC,0.02,VWS V13.00,2013-01-16 04:46:00,
2013-01-15 23:51:00,56.5,52.4,30.09,East,97,5.0,6.0,86,0.00,,SKC,0.02,VWS V13.00,2013-01-16 04:51:00,
2013-01-15 23:56:00,56.5,52.4,30.09,East,92,2.0,6.0,86,0.00,,SKC,0.02,VWS V13.00,2013-01-16 04:56:00,